Saginaw Browne, MI

8:23 AM EST on December 12, 2017 (GMT -0500)
Saginaw County-Browne

Weather History for KHYX - April, 2013

Change the Weather History Date:

Sunday, April 28, 2013

  Actual Average (KMBS) Record (KMBS)
Temperature  
Mean Temperature 55 °F -  
Max Temperature 66 °F 60 °F 78 °F (2003)
Min Temperature 44 °F 38 °F 29 °F (1998)
Degree Days  
Heating Degree Days 10    
Growing Degree Days 5 (Base 50)    
Moisture  
Dew Point 46 °F    
Average Humidity 76    
Maximum Humidity 100    
Minimum Humidity 49    
Precipitation  
Precipitation 0.00 in - - ()
Sea Level Pressure  
Sea Level Pressure 29.95 in    
Wind  
Wind Speed 5 mph (SE)    
Max Wind Speed 16 mph    
Max Gust Speed 18 mph    
Visibility 9 miles    
Events Rain    
Averages and records for this station are not official NWS values.
T = Trace of Precipitation, MM = Missing Value Source: NWS Daily Summary

Daily Weather History Graph

Daily Weather History Graph

Search for Another Location

Airport or City:

Trip Planner

Search our weather history database for the weather conditions in past years. The results will help you decide how hot, cold, wet, or windy it might be!

Date:

Astronomy

Apr. 28, 2013 Rise Set
Actual Time 6:32 AM EDT 8:34 PM EDT
Civil Twilight 6:01 AM EDT 9:05 PM EDT
Nautical Twilight 5:23 AM EDT 9:43 PM EDT
Astronomical Twilight 4:41 AM EDT 10:25 PM EDT
Moon No Moon Rise 8:44 AM EDT (4/28)
Length of Visible Light 15h 04m
Length of Day
14h 01m
Waning Gibbous, 89% of the Moon is Illuminated
Apr 28
Waning Gibbous
May 2
Last Quarter
May 9
New
May 18
First Quarter
May 25
Full

Hourly Weather History & Observations

Time (EDT) Temp. Windchill Dew Point Humidity Pressure Visibility Wind Dir Wind Speed Gust Speed Precip Events Conditions
12:15 AM 50.0 °F - 39.2 °F 66% 30.10 in 10.0 mi SSE 5.8 mph - N/A   Clear
12:35 AM 50.0 °F - 37.4 °F 62% 30.09 in 10.0 mi SSE 5.8 mph - N/A   Clear
12:55 AM 50.0 °F - 37.4 °F 62% 30.09 in 10.0 mi SE 4.6 mph - N/A   Clear
1:15 AM 50.0 °F - 37.4 °F 62% 30.09 in 10.0 mi SE 4.6 mph - N/A   Clear
1:36 AM 50.0 °F - 37.4 °F 62% 30.09 in 10.0 mi SE 4.6 mph - N/A   Clear
1:51 AM 50.0 °F - 37.4 °F 62% 30.09 in 10.0 mi SSE 5.8 mph - N/A   Clear
2:11 AM 50.0 °F - 37.4 °F 62% 30.08 in 10.0 mi SSE 4.6 mph - N/A   Clear
2:31 AM 50.0 °F - 35.6 °F 58% 30.07 in 10.0 mi SE 4.6 mph - N/A   Clear
2:51 AM 48.2 °F - 35.6 °F 62% 30.06 in 10.0 mi Calm Calm - N/A   Clear
3:11 AM 46.4 °F - 37.4 °F 71% 30.06 in 10.0 mi Calm Calm - N/A   Scattered Clouds
3:31 AM 50.0 °F - 35.6 °F 58% 30.05 in 10.0 mi Calm Calm - N/A   Mostly Cloudy
3:51 AM 46.4 °F 45.2 °F 37.4 °F 71% 30.03 in 10.0 mi East 3.5 mph - N/A   Mostly Cloudy
4:12 AM 46.4 °F - 37.4 °F 71% 30.03 in 10.0 mi Calm Calm - N/A   Scattered Clouds
4:32 AM 44.6 °F - 39.2 °F 81% 30.02 in 10.0 mi Calm Calm - N/A   Overcast
4:52 AM 46.4 °F - 39.2 °F 76% 30.02 in 10.0 mi Calm Calm - N/A   Overcast
5:12 AM 46.4 °F - 41.0 °F 81% 30.01 in 10.0 mi Calm Calm - N/A   Overcast
5:32 AM 46.4 °F - 42.8 °F 87% 30.01 in 10.0 mi Calm Calm - N/A   Overcast
5:52 AM 48.2 °F - 41.0 °F 76% 30.01 in 10.0 mi Calm Calm - N/A   Overcast
6:12 AM 46.4 °F - 42.8 °F 87% 30.01 in 10.0 mi Calm Calm - N/A   Overcast
6:32 AM 46.4 °F - 42.8 °F 87% 30.01 in 10.0 mi Calm Calm - N/A   Overcast
6:53 AM 46.4 °F 45.2 °F 42.8 °F 87% 30.00 in 10.0 mi NE 3.5 mph - N/A   Overcast
7:13 AM 46.4 °F 44.3 °F 42.8 °F 87% 30.00 in 10.0 mi East 4.6 mph - N/A   Overcast
7:33 AM 48.2 °F - 42.8 °F 82% 29.99 in 10.0 mi ENE 3.5 mph - N/A   Overcast
7:53 AM 50.0 °F - 42.8 °F 76% 29.99 in 10.0 mi ENE 3.5 mph - N/A   Overcast
8:13 AM 50.0 °F - 42.8 °F 76% 29.98 in 10.0 mi Calm Calm - N/A   Overcast
8:33 AM 51.8 °F - 42.8 °F 71% 29.98 in 10.0 mi Calm Calm - N/A   Overcast
9:13 AM 55.4 °F - 41.0 °F 58% 29.98 in 10.0 mi ESE 3.5 mph - N/A   Overcast
9:33 AM 55.4 °F - 41.0 °F 58% 29.98 in 10.0 mi ESE 4.6 mph - N/A   Overcast
9:53 AM 55.4 °F - 41.0 °F 58% 29.98 in 10.0 mi ESE 3.5 mph - N/A   Overcast
10:13 AM 57.2 °F - 41.0 °F 55% 29.98 in 10.0 mi Calm Calm - N/A   Overcast
10:33 AM 59.0 °F - 41.0 °F 51% 29.97 in 10.0 mi Calm Calm - N/A   Mostly Cloudy
10:54 AM 60.8 °F - 42.8 °F 52% 29.96 in 10.0 mi Calm Calm - N/A   Mostly Cloudy
11:14 AM 62.6 °F - 44.6 °F 52% 29.96 in 10.0 mi Calm Calm - N/A   Mostly Cloudy
11:34 AM 62.6 °F - 44.6 °F 52% 29.95 in 10.0 mi SE 5.8 mph - N/A   Overcast
11:54 AM 64.4 °F - 44.6 °F 49% 29.94 in 10.0 mi SE 4.6 mph - N/A   Overcast
12:14 PM 64.4 °F - 46.4 °F 52% 29.94 in 10.0 mi SE 10.4 mph - N/A   Overcast
12:34 PM 64.4 °F - 44.6 °F 49% 29.93 in 10.0 mi SE 11.5 mph 16.1 mph N/A   Overcast
12:54 PM 66.2 °F - 46.4 °F 49% 29.93 in 10.0 mi SE 9.2 mph - N/A   Overcast
1:14 PM 64.4 °F - 46.4 °F 52% 29.92 in 10.0 mi SE 11.5 mph - N/A   Overcast
1:34 PM 64.4 °F - 46.4 °F 52% 29.91 in 10.0 mi SE 12.7 mph - N/A   Overcast
1:55 PM 64.4 °F - 48.2 °F 56% 29.91 in 10.0 mi SSE 13.8 mph - N/A   Mostly Cloudy
2:15 PM 64.4 °F - 48.2 °F 56% 29.91 in 10.0 mi SSE 16.1 mph - N/A   Mostly Cloudy
2:35 PM 62.6 °F - 50.0 °F 63% 29.91 in 10.0 mi SE 10.4 mph - N/A Rain Light Rain
2:55 PM 60.8 °F - 50.0 °F 68% 29.91 in 10.0 mi SE 11.5 mph - N/A   Light Drizzle
3:15 PM 60.8 °F - 50.0 °F 68% 29.91 in 10.0 mi ESE 10.4 mph - N/A Rain Light Rain
3:35 PM 59.0 °F - 51.8 °F 77% 29.91 in 10.0 mi SE 11.5 mph - N/A Rain Light Rain
3:55 PM 57.2 °F - 51.8 °F 82% 29.90 in 10.0 mi SE 10.4 mph - N/A Rain Light Rain
4:15 PM 55.4 °F - 53.6 °F 94% 29.90 in 10.0 mi ESE 13.8 mph 18.4 mph N/A Rain Light Rain
4:35 PM 55.4 °F - 53.6 °F 94% 29.89 in 7.0 mi SE 11.5 mph - N/A Rain Light Rain
4:55 PM 55.4 °F - 53.6 °F 94% 29.89 in 7.0 mi SE 11.5 mph - N/A   Light Drizzle
5:16 PM 55.4 °F - 53.6 °F 94% 29.89 in 7.0 mi SE 11.5 mph - N/A Rain Light Rain
5:36 PM 55.4 °F - 53.6 °F 94% 29.88 in 7.0 mi SE 9.2 mph - N/A   Light Drizzle
5:51 PM 55.4 °F - 53.6 °F 94% 29.88 in 10.0 mi SE 8.1 mph - N/A   Overcast
6:11 PM 55.4 °F - 53.6 °F 94% 29.88 in 5.0 mi ESE 8.1 mph - N/A   Light Drizzle
6:31 PM 53.6 °F - 53.6 °F 100% 29.87 in 5.0 mi ESE 9.2 mph - N/A   Light Drizzle
6:51 PM 55.4 °F - 53.6 °F 94% 29.86 in 10.0 mi ESE 9.2 mph - N/A   Overcast
7:11 PM 55.4 °F - 53.6 °F 94% 29.86 in 10.0 mi SE 6.9 mph - N/A   Overcast
7:31 PM 55.4 °F - 53.6 °F 94% 29.86 in 10.0 mi ESE 5.8 mph - N/A   Overcast
7:51 PM 55.4 °F - 53.6 °F 94% 29.86 in 10.0 mi ESE 5.8 mph - N/A   Overcast
8:11 PM 55.4 °F - 53.6 °F 94% 29.86 in 10.0 mi ESE 5.8 mph - N/A   Overcast
8:31 PM 55.4 °F - 53.6 °F 94% 29.86 in 10.0 mi ESE 5.8 mph - N/A   Overcast
8:51 PM 55.4 °F - 53.6 °F 94% 29.86 in 10.0 mi ESE 3.5 mph - N/A   Overcast
9:11 PM 53.6 °F - 53.6 °F 100% 29.86 in 7.0 mi ESE 4.6 mph - N/A   Overcast
9:31 PM 53.6 °F - 53.6 °F 100% 29.86 in 10.0 mi Calm Calm - N/A   Overcast
9:52 PM 55.4 °F - 55.4 °F 100% 29.87 in 10.0 mi Calm Calm - N/A   Overcast
10:12 PM 53.6 °F - 53.6 °F 100% 29.87 in 7.0 mi Calm Calm - N/A   Overcast
10:32 PM 53.6 °F - 53.6 °F 100% 29.87 in 7.0 mi Calm Calm - N/A   Overcast
10:52 PM 53.6 °F - 53.6 °F 100% 29.87 in 10.0 mi Calm Calm - N/A   Overcast
11:12 PM 53.6 °F - 53.6 °F 100% 29.86 in 3.0 mi Calm Calm - N/A   Overcast
11:32 PM 53.6 °F - 53.6 °F 100% 29.86 in 3.0 mi Calm Calm - N/A   Overcast
11:52 PM 53.6 °F - 53.6 °F 100% 29.85 in 3.0 mi Calm Calm - N/A   Overcast